sat.trackr.live / text

‹ back to catalog

ONEWEB-0228

NORAD 48780 · 2021-045P

PAYLOAD ACTIVE UNKNOWN

§ Identity

Operator
Country
UK
Launch date
2021-05-28
Launch site
VOSTO
Launch vehicle
Mass (kg)
RCS (m²)

Purposes: comms

External: N2YO · Heavens-Above · Gunter

§ Orbital elements

Epoch: 2026-09-20T04:00:14.556096Z

Period
109.46 min
Inclination
87.9001°
Eccentricity
0.0001962
Mean motion
13.15547405 rev/d
Perigee alt
1,200.3 km
Apogee alt
1,203.3 km
Semi-major
7,579.9 km
B*
9.3449e-5
RAAN
240.2550°
Arg perigee
80.5085°
Mean anomaly
279.6267°
Rev number
25,681

§ Raw data

ONEWEB-02281 48780U 21045P   26263.16683514  .00000048  00000+0  93449-4 0  99962 48780  87.9001 240.2550 0001962  80.5085 279.6267 13.15547405256812

JSON: /api/v1/satellites/48780 · /tle

For live sub-satellite position, see the globe view (requires WebGL).

§ Visibility from observer

Set your observer location to see the next 7 days of passes ≥ 10°. The values pass through the URL so the page stays shareable.

No JS? Fill the form by hand. The geolocation button needs JavaScript.